CW3684 Weather Reports


Display with metric or nautical units.
time (UTC)temp
F
wind
direction
speed
MPH
gust
MPH
rain 1hr
in
rain 24hr
in
rain mn
in
humidity
%
barometer
mb
20220927211607 49 360 0.0 1.0 0.00 0.00 0.00 52 1005.6
20220927210104 49 173 0.0 0.0 0.00 0.00 0.00 57 1005.6
20220927204546 48 360 0.0 1.0 0.00 0.00 0.00 60 1005.5
20220927203042 47 167 0.0 1.0 0.00 0.00 0.00 61 1005.5
20220927201539 46 163 0.0 0.0 0.00 0.00 0.00 64 1005.3
20220927200053 46 164 0.0 1.0 0.00 0.00 0.00 65 1005.2
20220927194539 46 242 0.0 1.0 0.00 0.00 0.00 65 1005.1
20220927193041 45 164 0.0 1.0 0.00 0.00 0.00 69 1005.0
20220927191526 44 171 0.0 1.0 0.00 0.00 0.00 68 1004.9
20220927190023 44 148 0.0 1.0 0.00 0.00 0.00 71 1004.7
20220927184531 43 156 0.0 0.0 0.00 0.00 0.00 75 1004.5
20220927183032 41 161 0.0 0.0 0.00 0.00 0.00 80 1004.4
20220927181541 40 159 0.0 1.0 0.00 0.00 0.00 84 1004.2
20220927180011 38 360 0.0 0.0 0.00 0.00 0.00 86 1004.1
20220927174520 37 160 0.0 1.0 0.00 0.00 0.00 89 1003.9
20220927173029 35 166 0.0 1.0 0.00 0.00 0.00 91 1003.7
20220927171507 35 211 0.0 1.0 0.00 0.00 0.00 90 1003.5
20220927170006 35 186 0.0 0.0 0.00 0.00 0.00 90 1003.3
20220927164503 35 202 0.0 1.0 0.00 0.00 0.00 90 1003.2
20220927163132 35 163 0.0 0.0 0.00 0.00 0.00 90 1002.9
20220927161601 34 210 0.0 1.0 0.00 0.00 0.00 89 1002.7
20220927160054 35 204 0.0 1.0 0.00 0.00 0.00 88 1002.4
20220927154556 35 185 0.0 1.0 0.00 0.00 0.00 86 1002.1
20220927153051 37 221 0.0 1.0 0.00 0.00 0.00 83 1001.9
20220927151545 37 172 0.0 1.0 0.00 0.00 0.00 83 1001.8
20220927150048 37 186 0.0 1.0 0.00 0.00 0.00 83 1001.6
20220927144541 38 220 0.0 1.0 0.00 0.00 0.00 82 1001.5
20220927143039 38 360 0.0 0.0 0.00 0.00 0.00 81 1001.4
20220927141542 38 182 0.0 0.0 0.00 0.00 0.00 81 1001.2
20220927140036 38 167 0.0 1.0 0.00 0.00 0.00 81 1001.1
20220927134533 38 150 0.0 1.0 0.00 0.00 0.00 81 1000.7
20220927133030 38 150 0.0 1.0 0.00 0.00 0.00 82 1000.5
20220927131528 38 360 0.0 1.0 0.00 0.00 0.00 81 1000.3
20220927130026 39 360 0.0 1.0 0.00 0.00 0.00 81 1000.2
20220927124525 39 360 0.0 1.0 0.00 0.00 0.00 80 1000.2
20220927123021 40 108 0.0 1.0 0.00 0.00 0.00 80 1000.1
20220927121521 40 168 0.0 1.0 0.00 0.00 0.00 79 999.9
20220927120017 41 115 0.0 1.0 0.00 0.00 0.00 79 999.6
20220927114540 41 147 0.0 1.0 0.00 0.00 0.00 79 999.7
20220927113034 40 360 0.0 0.0 0.00 0.00 0.00 79 999.5
20220927111528 40 170 0.0 1.0 0.00 0.00 0.00 79 999.4
20220927110011 40 360 0.0 1.0 0.00 0.00 0.00 79 999.2
20220927104510 41 360 0.0 1.0 0.00 0.00 0.00 79 999.1
20220927103008 41 152 0.0 1.0 0.00 0.00 0.00 79 999.1
20220927101506 41 360 0.0 1.0 0.00 0.00 0.00 79 998.6
20220927100008 41 116 0.0 1.0 0.00 0.00 0.00 79 998.7
20220927094504 41 177 0.0 1.0 0.00 0.00 0.00 77 998.5
20220927093002 41 165 0.0 1.0 0.00 0.00 0.00 77 998.3
20220927091501 41 174 0.0 1.0 0.00 0.00 0.00 77 998.3
20220927090058 41 172 0.0 1.0 0.00 0.00 0.00 78 998.2
20220927084556 41 168 0.0 1.0 0.00 0.00 0.00 79 998.1
20220927083059 41 165 0.0 1.0 0.00 0.00 0.00 79 998.0
20220927081609 41 360 0.0 1.0 0.00 0.00 0.00 79 997.8
20220927080049 40 94 0.0 1.0 0.00 0.00 0.00 79 997.4
20220927074548 41 104 0.0 1.0 0.00 0.00 0.00 79 997.3
20220927073053 41 360 0.0 1.0 0.00 0.00 0.00 79 997.3
20220927071552 41 360 0.0 1.0 0.00 0.00 0.00 80 997.2
20220927070056 41 123 0.0 1.0 0.00 0.00 0.00 79 996.9
20220927064551 41 360 0.0 1.0 0.00 0.00 0.00 79 996.7
20220927063044 41 157 0.0 1.0 0.00 0.00 0.00 79 996.5
20220927061548 41 119 0.0 0.0 0.00 0.00 0.00 79 996.4
20220927060043 41 360 0.0 0.0 0.00 0.00 0.00 78 996.1
20220927054543 42 360 0.0 1.0 0.00 0.00 0.00 77 996.4
20220927053042 42 360 0.0 1.0 0.00 0.00 0.00 77 996.3
20220927051548 42 182 0.0 1.0 0.00 0.00 0.00 75 996.2
20220927050139 42 157 0.0 0.0 0.00 0.00 0.00 74 996.1
20220927044549 42 171 0.0 0.0 0.00 0.00 0.00 73 996.0
20220927043038 43 162 0.0 1.0 0.00 0.00 0.00 73 995.9
20220927041545 43 90 0.0 1.0 0.00 0.00 0.00 72 995.8
20220927040048 43 113 0.0 1.0 0.00 0.00 0.00 71 995.7
20220927034536 44 153 0.0 1.0 0.00 0.00 0.00 70 995.6
20220927033041 44 360 0.0 1.0 0.00 0.00 0.00 68 995.6
20220927031536 45 91 0.0 1.0 0.00 0.00 0.00 67 995.4
20220927030034 45 101 0.0 1.0 0.00 0.00 0.00 65 995.3
20220927024533 46 360 0.0 1.0 0.00 0.00 0.00 63 995.4
20220927023043 46 175 0.0 1.0 0.00 0.00 0.00 61 995.2
20220927021556 46 117 0.0 1.0 0.00 0.00 0.00 62 995.1
20220927020033 47 103 0.0 1.0 0.00 0.00 0.00 61 995.0
20220927014544 47 360 0.0 1.0 0.00 0.00 0.00 62 995.1
20220927013038 47 124 0.0 1.0 0.00 0.00 0.00 61 995.0
20220927011529 46 360 0.0 1.0 0.00 0.00 0.00 63 995.1
20220927010028 46 190 0.0 1.0 0.00 0.00 0.00 63 995.2
20220927004528 46 360 0.0 1.0 0.00 0.00 0.00 64 995.0
20220927003031 47 147 0.0 1.0 0.00 0.00 0.00 64 994.9
20220927001526 47 149 0.0 1.0 0.00 0.00 0.00 63 995.0
20220927000030 47 182 0.0 1.0 0.00 0.00 0.00 67 995.0
20220926234525 47 189 0.0 1.0 0.00 0.00 0.00 65 995.0
20220926233026 47 360 0.0 1.0 0.00 0.00 0.00 65 995.0
20220926231535 47 238 0.0 1.0 0.00 0.00 0.00 68 994.9
20220926230020 46 205 0.0 1.0 0.00 0.00 0.00 70 994.6
20220926224517 44 237 0.0 0.0 0.00 0.00 0.00 78 994.5
20220926223013 43 252 0.0 1.0 0.00 0.00 0.00 82 994.5
20220926221528 42 244 0.0 1.0 0.00 0.00 0.00 83 994.5
20220926220007 42 236 0.0 1.0 0.00 0.00 0.00 83 994.4
20220926214514 42 215 0.0 1.0 0.00 0.00 0.00 81 994.4
20220926213005 41 223 0.0 1.0 0.00 0.00 0.00 78 994.1